Deelen, Netherlands

2:56 PM CEST on August 17, 2017 (GMT +0200)
Deelen Air Base

Weather History for EHDL - November, 2012

Change the Weather History Date:

Wednesday, November 14, 2012

  Actual Average Record
Temperature  
Mean Temperature 44 °F -  
Max Temperature 53 °F 44 °F 55 °F (2002)
Min Temperature 35 °F 35 °F 28 °F (2016)
Degree Days  
Heating Degree Days 21    
Moisture  
Dew Point 39 °F    
Average Humidity 80    
Maximum Humidity 93    
Minimum Humidity 58    
Precipitation  
Precipitation 0.00 in - - ()
Sea Level Pressure  
Sea Level Pressure 30.36 in    
Wind  
Wind Speed 4 mph ()    
Max Wind Speed 8 mph    
Max Gust Speed -    
Visibility 6.1 miles    
Events      
Averages and records for this station are not official NWS values.
T = Trace of Precipitation, MM = Missing Value Source: Averaged Metar Reports

Daily Weather History Graph

Daily Weather History Graph

Search for Another Location

Airport or City:

Trip Planner

Search our weather history database for the weather conditions in past years. The results will help you decide how hot, cold, wet, or windy it might be!

Date:

Astronomy

Nov. 14, 2012 Rise Set
Actual Time 7:55 AM CET 4:45 PM CET
Civil Twilight 7:17 AM CET 5:23 PM CET
Nautical Twilight 6:36 AM CET 6:04 PM CET
Astronomical Twilight 5:56 AM CET 6:44 PM CET
Moon 8:32 AM CET (11/14) 5:11 PM CET (11/14)
Length of Visible Light 10h 05m
Length of Day
8h 50m
New Moon, 0% of the Moon is Illuminated
Nov 14
New Moon
Nov 20
First Quarter
Nov 28
Full
Dec 6
Last Quarter
Dec 13
New

Hourly Weather History & Observations

Time (CET) Temp. Windchill Dew Point Humidity Pressure Visibility Wind Dir Wind Speed Gust Speed Precip Events Conditions
12:25 AM 46.4 °F 45.2 °F 44.6 °F 93% 30.42 in 6.2 mi SSE 3.5 mph - N/A   Overcast
12:55 AM 46.4 °F 44.3 °F 44.6 °F 93% 30.42 in 6.2 mi SSE 4.6 mph - N/A   Overcast
1:25 AM 46.4 °F 45.2 °F 44.6 °F 93% 30.42 in 6.2 mi SE 3.5 mph - N/A   Overcast
1:55 AM 46.4 °F 45.2 °F 44.6 °F 93% 30.42 in 6.2 mi SE 3.5 mph - N/A   Overcast
2:25 AM 46.4 °F 45.2 °F 44.6 °F 93% 30.42 in 6.2 mi SE 3.5 mph - N/A   Overcast
2:55 AM 46.4 °F 45.2 °F 44.6 °F 93% 30.42 in 6.2 mi ESE 3.5 mph - N/A   Overcast
3:25 AM 46.4 °F 44.3 °F 44.6 °F 93% 30.42 in 6.2 mi SE 4.6 mph - N/A   Overcast
3:55 AM 46.4 °F 44.3 °F 42.8 °F 87% 30.42 in 6.2 mi SE 4.6 mph - N/A   Overcast
4:25 AM 46.4 °F 45.2 °F 42.8 °F 87% 30.42 in 6.2 mi ESE 3.5 mph - N/A   Overcast
4:55 AM 46.4 °F 44.3 °F 42.8 °F 87% 30.42 in 6.2 mi SE 4.6 mph - N/A   Overcast
5:25 AM 46.4 °F 43.5 °F 42.8 °F 87% 30.42 in 6.2 mi SE 5.8 mph - N/A   Overcast
5:55 AM 46.4 °F 43.5 °F 41.0 °F 81% 30.42 in 6.2 mi SE 5.8 mph - N/A   Overcast
6:25 AM 46.4 °F 44.3 °F 41.0 °F 81% 30.39 in 6.2 mi SE 4.6 mph - N/A   Overcast
6:55 AM 46.4 °F 44.3 °F 41.0 °F 81% 30.39 in 6.2 mi SE 4.6 mph - N/A   Overcast
7:25 AM 46.4 °F 43.5 °F 41.0 °F 81% 30.39 in 6.2 mi SE 5.8 mph - N/A   Overcast
7:55 AM 46.4 °F 44.3 °F 39.2 °F 76% 30.39 in 6.2 mi SE 4.6 mph - N/A   Overcast
8:25 AM 44.6 °F 42.2 °F 39.2 °F 81% 30.42 in 6.2 mi SE 4.6 mph - N/A   Overcast
8:55 AM 44.6 °F 42.2 °F 39.2 °F 81% 30.42 in 6.2 mi SE 4.6 mph - N/A   Overcast
9:25 AM 46.4 °F 44.3 °F 39.2 °F 76% 30.42 in 6.2 mi SSE 4.6 mph - N/A   Mostly Cloudy
9:55 AM 48.2 °F - 37.4 °F 66% 30.42 in 6.2 mi SSE 3.5 mph - N/A   Partly Cloudy
10:25 AM 50.0 °F - 39.2 °F 66% 30.42 in 6.2 mi SE 8.1 mph - N/A   Unknown
10:55 AM 50.0 °F - 37.4 °F 62% 30.39 in 6.2 mi SE 4.6 mph - N/A   Unknown
11:25 AM 51.8 °F - 37.4 °F 58% 30.39 in 6.2 mi SSE 3.5 mph - N/A   Unknown
11:55 AM 51.8 °F - 37.4 °F 58% 30.39 in 6.2 mi ESE 3.5 mph - N/A   Unknown
12:25 PM 53.6 °F - 41.0 °F 62% 30.39 in 6.2 mi SE 4.6 mph - N/A   Unknown
12:55 PM 53.6 °F - 41.0 °F 62% 30.36 in 6.2 mi SE 6.9 mph - N/A   Unknown
1:25 PM 53.6 °F - 41.0 °F 62% 30.36 in 6.2 mi ESE 6.9 mph - N/A   Unknown
1:55 PM 53.6 °F - 39.2 °F 58% 30.33 in 6.2 mi ESE 8.1 mph - N/A   Unknown
2:25 PM 53.6 °F - 41.0 °F 62% 30.33 in 6.2 mi East 6.9 mph - N/A   Partly Cloudy
2:55 PM 53.6 °F - 41.0 °F 62% 30.33 in 6.2 mi East 5.8 mph - N/A   Unknown
3:25 PM 53.6 °F - 41.0 °F 62% 30.33 in 6.2 mi East 5.8 mph - N/A   Unknown
3:55 PM 53.6 °F - 41.0 °F 62% 30.33 in 6.2 mi East 4.6 mph - N/A   Unknown
4:25 PM 50.0 °F - 41.0 °F 71% 30.30 in 6.2 mi ENE 3.5 mph - N/A   Unknown
4:55 PM 44.6 °F - 39.2 °F 81% 30.30 in 6.2 mi North 2.3 mph - N/A   Unknown
5:25 PM 41.0 °F - 37.4 °F 87% 30.30 in 6.2 mi North 1.2 mph - N/A   Unknown
5:55 PM 39.2 °F - 37.4 °F 93% 30.30 in 6.2 mi North 2.3 mph - N/A   Unknown
6:25 PM 39.2 °F - 37.4 °F 93% 30.30 in 5.0 mi East 1.2 mph - N/A   Mist
6:55 PM 39.2 °F - 37.4 °F 93% 30.30 in 4.3 mi SE 2.3 mph - N/A   Mist
7:25 PM 39.2 °F 37.0 °F 37.4 °F 93% 30.30 in 5.6 mi East 3.5 mph - N/A   Mist
7:55 PM 39.2 °F 37.0 °F 35.6 °F 87% 30.30 in 6.2 mi East 3.5 mph - N/A   Unknown
8:25 PM 37.4 °F 34.9 °F 35.6 °F 93% 30.30 in 6.2 mi ESE 3.5 mph - N/A   Partly Cloudy
8:55 PM 37.4 °F - 33.8 °F 87% 30.30 in 5.6 mi SE 2.3 mph - N/A   Mist
9:25 PM 41.0 °F 37.1 °F 35.6 °F 81% 30.27 in 6.2 mi East 5.8 mph - N/A   Unknown
9:55 PM 39.2 °F - 33.8 °F 81% 30.30 in 6.2 mi ENE 2.3 mph - N/A   Unknown
10:25 PM 37.4 °F - 32.0 °F 81% 30.27 in 6.2 mi ENE 2.3 mph - N/A   Unknown
10:55 PM 35.6 °F - 32.0 °F 87% 30.27 in 5.0 mi SSE 2.3 mph - N/A   Mist
11:25 PM 35.6 °F 31.7 °F 32.0 °F 87% 30.27 in 6.2 mi SSE 4.6 mph - N/A   Partly Cloudy
11:55 PM 37.4 °F 34.9 °F 33.8 °F 87% 30.27 in 5.6 mi SE 3.5 mph - N/A   Mist